NDF181 EHAM-EDDH

Flight info

Callsign NDF181
Flight time 0h 43m
Altitude 31000
Route ANDIK M105 RIBSO RIBSO3D
Aircraft A319/M-SDE3FGHIRWY/LB1

Departure

Time 2026-04-18 10:49
Airport Amsterdam Airport Schiphol (EHAM)

Arrival

Time 2026-04-18 11:33
Airport Hamburg Helmut Schmidt Airport (EDDH)
Time Latitude Longitude Altitude Speed Heading
2026-04-18 10:26 52.30887 4.77175 -2 ft 0 kts
2026-04-18 10:43 52.30885 4.77175 -2 ft 3 kts
2026-04-18 10:44 52.30860 4.77175 -2 ft 4 kts 21°
2026-04-18 10:44 52.30851 4.77157 -2 ft 4 kts 78°
2026-04-18 10:44 52.30850 4.77149 -2 ft 0 kts 77°
2026-04-18 10:46 52.30850 4.77199 -2 ft 11 kts 99°
2026-04-18 10:46 52.30841 4.77363 -2 ft 15 kts 92°
2026-04-18 10:47 52.30778 4.77464 -2 ft 15 kts 181°
2026-04-18 10:47 52.30674 4.77463 -2 ft 15 kts 170°
2026-04-18 10:47 52.30575 4.77543 -2 ft 16 kts 151°
2026-04-18 10:47 52.30515 4.77596 -2 ft 8 kts 151°
2026-04-18 10:48 52.30464 4.77640 -1 ft 10 kts 156°
2026-04-18 10:48 52.30403 4.77609 -2 ft 7 kts 233°
2026-04-18 10:48 52.30401 4.77606 -2 ft 0 kts 236°
2026-04-18 10:48 52.30400 4.77603 -2 ft 8 kts 236°
2026-04-18 10:49 52.30206 4.77099 -5 ft 92 kts 238°
2026-04-18 10:49 52.29753 4.75913 -4 ft 151 kts 238°
2026-04-18 10:49 52.29158 4.74346 524 ft 162 kts 239°
2026-04-18 10:49 52.28578 4.72813 1485 ft 154 kts 240°
2026-04-18 10:50 52.28027 4.71436 2584 ft 136 kts 238°
2026-04-18 10:50 52.27462 4.70073 3191 ft 155 kts 239°
2026-04-18 10:50 52.26732 4.68613 3649 ft 180 kts 222°
2026-04-18 10:50 52.25540 4.67700 4090 ft 208 kts 195°
2026-04-18 10:51 52.23999 4.67989 4820 ft 237 kts 161°
2026-04-18 10:51 52.22737 4.69738 5813 ft 252 kts 127°
2026-04-18 10:51 52.21953 4.72329 6748 ft 257 kts 118°
2026-04-18 10:51 52.21220 4.75041 7603 ft 259 kts 118°
2026-04-18 10:52 52.20466 4.77682 8388 ft 264 kts 120°
2026-04-18 10:52 52.19989 4.80656 9048 ft 283 kts 93°
2026-04-18 10:52 52.20439 4.83863 9607 ft 306 kts 61°
2026-04-18 10:52 52.21911 4.86395 10295 ft 314 kts 29°
2026-04-18 10:53 52.23918 4.88077 10690 ft 335 kts 22°
2026-04-18 10:53 52.26098 4.89749 11144 ft 353 kts 22°
2026-04-18 10:53 52.28345 4.91442 11906 ft 359 kts 21°
2026-04-18 10:53 52.30630 4.93168 12752 ft 364 kts 22°
2026-04-18 10:54 52.32938 4.94926 13597 ft 368 kts 22°
2026-04-18 10:54 52.35270 4.96724 14428 ft 372 kts 22°
2026-04-18 10:54 52.37618 4.98552 15241 ft 376 kts 22°
2026-04-18 10:54 52.39995 5.00401 16058 ft 380 kts 22°
2026-04-18 10:55 52.42396 5.02271 16812 ft 384 kts 22°
2026-04-18 10:55 52.44823 5.04165 17518 ft 388 kts 22°
2026-04-18 10:55 52.47274 5.06080 18218 ft 392 kts 22°
2026-04-18 10:55 52.49750 5.08020 18849 ft 396 kts 22°
2026-04-18 10:56 52.52255 5.09984 19427 ft 401 kts 22°
2026-04-18 10:56 52.54780 5.11965 20016 ft 405 kts 22°
2026-04-18 10:56 52.57344 5.13976 20597 ft 410 kts 22°
2026-04-18 10:56 52.59931 5.16004 21170 ft 414 kts 22°
2026-04-18 10:57 52.62517 5.18035 21763 ft 419 kts 22°
2026-04-18 10:57 52.65196 5.20141 22346 ft 424 kts 22°
2026-04-18 10:57 52.67866 5.22252 22937 ft 428 kts 24°
2026-04-18 10:57 52.70391 5.24823 23480 ft 436 kts 35°
2026-04-18 10:58 52.72663 5.28177 23976 ft 443 kts 46°
2026-04-18 10:58 52.74588 5.32249 24425 ft 447 kts 58°
2026-04-18 10:58 52.76020 5.36742 24865 ft 450 kts 69°
2026-04-18 10:58 52.77095 5.41608 25316 ft 452 kts 72°
2026-04-18 10:59 52.78149 5.46525 25753 ft 456 kts 72°
2026-04-18 10:59 52.79211 5.51469 26187 ft 459 kts 72°
2026-04-18 10:59 52.80285 5.56460 26563 ft 463 kts 73°
2026-04-18 10:59 52.81365 5.61499 26949 ft 467 kts 73°
2026-04-18 11:00 52.82469 5.66573 27355 ft 471 kts 72°
2026-04-18 11:00 52.83617 5.71662 27787 ft 475 kts 72°
2026-04-18 11:00 52.84803 5.76789 28200 ft 478 kts 71°
2026-04-18 11:00 52.86010 5.81942 28610 ft 482 kts 71°
2026-04-18 11:01 52.87225 5.87135 29057 ft 484 kts 72°
2026-04-18 11:01 52.88436 5.92359 29474 ft 487 kts 72°
2026-04-18 11:01 52.89643 5.97627 29871 ft 490 kts 72°
2026-04-18 11:02 52.92035 6.08198 30520 ft 496 kts 73°
2026-04-18 11:02 52.93258 6.13630 30854 ft 498 kts 72°
2026-04-18 11:02 52.94472 6.19019 31110 ft 499 kts 72°
2026-04-18 11:02 52.95663 6.24305 31169 ft 489 kts 72°
2026-04-18 11:03 52.96838 6.29508 31162 ft 476 kts 73°
2026-04-18 11:03 52.97989 6.34618 31162 ft 472 kts 73°
2026-04-18 11:03 53.00265 6.44818 31160 ft 470 kts 73°
2026-04-18 11:04 53.02520 6.54990 31158 ft 470 kts 73°
2026-04-18 11:04 53.04773 6.65183 31185 ft 469 kts 73°
2026-04-18 11:05 53.07003 6.75358 31207 ft 468 kts 73°
2026-04-18 11:05 53.09229 6.85534 31195 ft 468 kts 73°
2026-04-18 11:06 53.11444 6.95698 31183 ft 467 kts 73°
2026-04-18 11:06 53.13649 7.05882 31162 ft 467 kts 73°
2026-04-18 11:07 53.16409 7.15718 30841 ft 471 kts 65°
2026-04-18 11:07 53.17914 7.20571 30562 ft 470 kts 64°
2026-04-18 11:07 53.19415 7.25396 30318 ft 470 kts 64°
2026-04-18 11:08 53.20925 7.30250 30046 ft 470 kts 64°
2026-04-18 11:08 53.22429 7.35092 29751 ft 469 kts 64°
2026-04-18 11:08 53.23900 7.39854 29477 ft 467 kts 64°
2026-04-18 11:08 53.25380 7.44663 29195 ft 465 kts 64°
2026-04-18 11:09 53.26847 7.49442 28916 ft 462 kts 64°
2026-04-18 11:09 53.28307 7.54212 28633 ft 460 kts 64°
2026-04-18 11:09 53.29762 7.58978 28362 ft 458 kts 64°
2026-04-18 11:09 53.31202 7.63710 28084 ft 456 kts 64°
2026-04-18 11:10 53.32635 7.68422 27816 ft 453 kts 65°
2026-04-18 11:10 53.34057 7.73110 27509 ft 451 kts 64°
2026-04-18 11:10 53.35470 7.77770 27268 ft 446 kts 64°
2026-04-18 11:10 53.36869 7.82387 27000 ft 444 kts 64°
2026-04-18 11:11 53.38258 7.86979 26712 ft 439 kts 64°
2026-04-18 11:11 53.39631 7.91534 26188 ft 437 kts 64°
2026-04-18 11:11 53.40993 7.96063 25665 ft 434 kts 64°
2026-04-18 11:11 53.42346 8.00564 25166 ft 432 kts 64°
2026-04-18 11:12 53.43693 8.05054 24655 ft 430 kts 64°
2026-04-18 11:12 53.45036 8.09540 24156 ft 428 kts 64°
2026-04-18 11:12 53.46369 8.14001 23621 ft 427 kts 64°
2026-04-18 11:12 53.47698 8.18455 23060 ft 425 kts 64°
2026-04-18 11:13 53.49014 8.22877 22547 ft 422 kts 64°
2026-04-18 11:13 53.50322 8.27276 22025 ft 420 kts 64°
2026-04-18 11:13 53.51623 8.31668 21499 ft 417 kts 64°
2026-04-18 11:13 53.52911 8.36023 20975 ft 415 kts 64°
2026-04-18 11:14 53.54190 8.40352 20451 ft 413 kts 64°
2026-04-18 11:14 53.55035 8.43214 20102 ft 412 kts 64°
2026-04-18 11:14 53.56305 8.47524 19573 ft 410 kts 64°
2026-04-18 11:14 53.57568 8.51816 19048 ft 409 kts 64°
2026-04-18 11:15 53.58827 8.56102 18571 ft 406 kts 64°
2026-04-18 11:15 53.60073 8.60357 17998 ft 404 kts 64°
2026-04-18 11:15 53.61301 8.64561 17535 ft 399 kts 64°
2026-04-18 11:15 53.62517 8.68738 17068 ft 394 kts 64°
2026-04-18 11:16 53.63718 8.72879 16522 ft 392 kts 64°
2026-04-18 11:16 53.64905 8.76976 16050 ft 387 kts 64°
2026-04-18 11:16 53.66081 8.81035 15622 ft 382 kts 64°
2026-04-18 11:16 53.67240 8.85069 15059 ft 382 kts 65°
2026-04-18 11:17 53.68395 8.89077 14582 ft 378 kts 63°
2026-04-18 11:17 53.69954 8.92619 14098 ft 376 kts 43°
2026-04-18 11:17 53.72108 8.95043 13579 ft 371 kts 25°
2026-04-18 11:17 53.74420 8.96938 13048 ft 368 kts 24°
2026-04-18 11:18 53.76715 8.98794 12522 ft 364 kts 24°
2026-04-18 11:18 53.78989 9.00641 12008 ft 361 kts 24°
2026-04-18 11:18 53.81239 9.02479 11499 ft 357 kts 24°
2026-04-18 11:18 53.83465 9.04307 11001 ft 353 kts 24°
2026-04-18 11:19 53.85659 9.06121 10510 ft 350 kts 24°
2026-04-18 11:19 53.87836 9.07934 10024 ft 347 kts 24°
2026-04-18 11:19 53.89987 9.09734 9509 ft 343 kts 24°
2026-04-18 11:19 53.92098 9.11539 9132 ft 336 kts 28°
2026-04-18 11:20 53.93845 9.14126 8730 ft 332 kts 52°
2026-04-18 11:20 53.94825 9.17547 8348 ft 326 kts 77°
2026-04-18 11:20 53.94996 9.21315 7968 ft 318 kts 95°
2026-04-18 11:20 53.94847 9.25019 7588 ft 312 kts 97°
2026-04-18 11:21 53.94591 9.28658 7207 ft 307 kts 103°
2026-04-18 11:21 53.94098 9.32141 6837 ft 301 kts 108°
2026-04-18 11:21 53.93539 9.35527 6468 ft 297 kts 109°
2026-04-18 11:21 53.92977 9.38866 6082 ft 293 kts 109°
2026-04-18 11:22 53.92417 9.42177 5692 ft 289 kts 109°
2026-04-18 11:22 53.91857 9.45441 5304 ft 286 kts 109°
2026-04-18 11:22 53.91300 9.48644 4918 ft 281 kts 109°
2026-04-18 11:22 53.90733 9.51803 4524 ft 277 kts 109°
2026-04-18 11:23 53.90168 9.54908 4145 ft 275 kts 109°
2026-04-18 11:23 53.89600 9.57985 3764 ft 272 kts 109°
2026-04-18 11:23 53.89035 9.61021 3390 ft 268 kts 109°
2026-04-18 11:23 53.88477 9.64014 3039 ft 264 kts 109°
2026-04-18 11:24 53.87932 9.66907 2978 ft 249 kts 109°
2026-04-18 11:24 53.87428 9.69602 2991 ft 241 kts 109°
2026-04-18 11:24 53.86923 9.72297 3026 ft 240 kts 109°
2026-04-18 11:24 53.86538 9.75048 3049 ft 242 kts 97°
2026-04-18 11:25 53.86366 9.77886 3073 ft 241 kts 97°
2026-04-18 11:25 53.86184 9.80702 3099 ft 241 kts 97°
2026-04-18 11:25 53.85994 9.83532 3123 ft 242 kts 97°
2026-04-18 11:25 53.85812 9.86366 3149 ft 242 kts 97°
2026-04-18 11:26 53.85631 9.89197 3174 ft 241 kts 97°
2026-04-18 11:26 53.85452 9.92017 3203 ft 241 kts 97°
2026-04-18 11:26 53.85278 9.94839 3184 ft 242 kts 97°
2026-04-18 11:26 53.85102 9.97662 3075 ft 240 kts 97°
2026-04-18 11:27 53.84922 10.00471 2985 ft 240 kts 98°
2026-04-18 11:27 53.84747 10.03285 3000 ft 240 kts 97°
2026-04-18 11:27 53.84571 10.06096 3005 ft 240 kts 97°
2026-04-18 11:27 53.84290 10.08872 2990 ft 237 kts 112°
2026-04-18 11:28 53.83465 10.11125 2992 ft 216 kts 138°
2026-04-18 11:28 53.82294 10.12470 2994 ft 194 kts 159°
2026-04-18 11:28 53.81092 10.13425 2988 ft 190 kts 158°
2026-04-18 11:28 53.79899 10.14382 3008 ft 190 kts 158°
2026-04-18 11:29 53.78710 10.15336 3006 ft 189 kts 158°
2026-04-18 11:29 53.77522 10.16288 3012 ft 189 kts 158°
2026-04-18 11:29 53.76334 10.17237 3010 ft 189 kts 158°
2026-04-18 11:29 53.75133 10.18040 2967 ft 187 kts 171°
2026-04-18 11:30 53.73847 10.18126 3136 ft 183 kts 192°
2026-04-18 11:30 53.72649 10.17429 3085 ft 183 kts 214°
2026-04-18 11:30 53.71701 10.16034 2825 ft 182 kts 229°
2026-04-18 11:30 53.70838 10.14446 2512 ft 185 kts 230°
2026-04-18 11:31 53.69957 10.12667 2302 ft 221 kts 232°
2026-04-18 11:31 53.68881 10.10531 1982 ft 248 kts 228°
2026-04-18 11:31 53.67728 10.08388 1465 ft 241 kts 231°
2026-04-18 11:31 53.66690 10.06265 1055 ft 230 kts 233°
2026-04-18 11:32 53.65737 10.04263 739 ft 211 kts 231°
2026-04-18 11:32 53.64828 10.02468 471 ft 192 kts 231°
2026-04-18 11:32 53.64024 10.00835 243 ft 171 kts 231°
2026-04-18 11:32 53.63295 9.99363 48 ft 150 kts 230°
2026-04-18 11:33 53.62726 9.98198 42 ft 107 kts 231°
2026-04-18 11:33 53.62507 9.97797 41 ft 21 kts 192°
2026-04-18 11:33 53.62433 9.97931 46 ft 15 kts 84°
2026-04-18 11:33 53.62441 9.98014 47 ft 0 kts 81°
2026-04-18 11:34 53.62442 9.98026 47 ft 4 kts 76°
2026-04-18 11:34 53.62464 9.98091 47 ft 9 kts 54°
2026-04-18 11:34 53.62518 9.98200 47 ft 15 kts 50°
2026-04-18 11:35 53.62592 9.98352 47 ft 18 kts 51°
2026-04-18 11:35 53.62672 9.98514 47 ft 19 kts 50°
2026-04-18 11:35 53.62754 9.98680 47 ft 19 kts 50°
2026-04-18 11:35 53.62838 9.98849 47 ft 20 kts 50°
2026-04-18 11:36 53.62928 9.99028 47 ft 20 kts 50°
2026-04-18 11:36 53.63020 9.99215 47 ft 21 kts 51°
2026-04-18 11:36 53.63108 9.99412 46 ft 22 kts 53°
2026-04-18 11:36 53.63168 9.99554 46 ft 7 kts 54°
2026-04-18 11:37 53.63197 9.99615 47 ft 6 kts 51°
2026-04-18 11:37 53.63220 9.99664 48 ft 5 kts 52°
2026-04-18 11:37 53.63223 9.99670 48 ft 1 kts 53°
2026-04-18 11:37 53.63218 9.99754 47 ft 17 kts 125°
2026-04-18 11:38 53.63115 9.99855 48 ft 18 kts 152°
2026-04-18 11:38 53.63002 9.99954 48 ft 19 kts 152°
2026-04-18 11:38 53.62883 10.00048 48 ft 20 kts 160°
2026-04-18 11:38 53.62757 10.00151 48 ft 16 kts 153°
2026-04-18 11:39 53.62721 10.00246 48 ft 11 kts 68°
2026-04-18 11:39 53.62734 10.00293 48 ft 1 kts 63°
2026-04-18 11:39 53.62739 10.00307 45 ft 1 kts 63°
2026-04-18 11:39 53.62741 10.00314 46 ft 0 kts 63°